Content
SEND FEEDBACK

Daily
Averages
Monthly
Summary
Italy

BARI, ITALY


Home > Europe > Italy
Elevation: 144 feet     Latitude: 41 08N     Longitude: 016 47E

WEATHER
 
SELECT A DAY
Number of Records: 294,738;   Date Range: 7/1/96 - 7/23/14
 
SHARE

PRINT THIS DATA

[ ← Previous Day ]
WEATHER ALMANAC - JANUARY 24, 2013
[ Next Day → ]
[ °C ]   °F
Weather ElementAverageHighLow
Temperature46.1 °F53.6 °F (1:50 pm)42.8 °F (6:20 am)
Dewpoint40.4 °F42.8 °F (2:20 am)37.4 °F (10:20 am)
Humidity80.8 %93 % (2:20 am)58 % (1:20 pm)
Barometer29.44 in29.62 in (12:50 am)29.39 in (8:50 am)
Wind Speed6.8 mph13.8 mph (10:20 am)
Weather ElementAverage
Visibility5.7 mi
Wind DirectionSSW (196.5 °)

Weather ElementTotal
Precipitation---
Heating Degree Days16.8 (Base 65)
Averaged from 46 records on January 24, 2013
WEATHER CONDITIONS BREAKOUT
WIND DIRECTION BREAKOUT
WEATHER BY HOUR - JANUARY 24, 2013
[ °C ]   °F
Local TimeTemperatureDewpointHumidityBarometerVisibilityWind DirectionWind SpeedGust SpeedPrecipitationEventsConditions
12:50 AM46.4 °F41.0 °F81 %29.62 in6.2 miNNW (330°)9.2 mphMostly Cloudy
1:20 AM46.4 °F41.0 °F81 %29.62 in6.2 miVariable2.3 mphThunderstormThunderstorm
1:50 AM46.4 °F41.0 °F81 %29.56 in6.2 miNW (320°)6.9 mphRain-ThunderstormLight Thunderstorms and Rain
2:20 AM44.6 °F42.8 °F93 %29.56 in4.3 miVariable2.3 mphRain-ThunderstormThunderstorms and Rain
2:50 AM44.6 °F42.8 °F93 %29.56 in4.3 miVariable2.3 mphThunderstormThunderstorm
3:20 AM44.6 °F42.8 °F93 %29.53 in6.2 miSSE (150°)3.5 mphRainLight Rain
3:50 AM44.6 °F42.8 °F93 %29.50 in4.3 miSouth (170°)2.3 mphRainLight Rain
4:20 AM44.6 °F42.8 °F93 %29.50 in6.2 miVariable3.5 mphMostly Cloudy
5:20 AM44.6 °F42.8 °F93 %29.47 in5.0 miSSW (210°)4.6 mphMostly Cloudy
5:50 AM44.6 °F42.8 °F93 %29.42 in6.2 miVariable3.5 mphScattered Clouds
6:20 AM42.8 °F41.0 °F93 %29.42 in4.3 miVariable3.5 mphScattered Clouds
6:50 AM42.8 °F41.0 °F93 %29.42 in4.3 miWSW (240°)5.8 mphScattered Clouds
7:20 AM42.8 °F41.0 °F93 %29.42 in4.3 miVariable3.5 mphScattered Clouds
7:50 AM42.8 °F41.0 °F93 %29.42 in4.3 miSSW (210°)4.6 mphScattered Clouds
8:20 AM44.6 °F42.8 °F93 %29.42 in4.3 miVariable3.5 mphScattered Clouds
8:50 AM44.6 °F42.8 °F93 %29.39 in5.0 miSW (230°)5.8 mphLight Drizzle
9:20 AM44.6 °F42.8 °F93 %29.42 in5.0 miSW (230°)5.8 mphLight Drizzle
9:50 AM46.4 °F42.8 °F87 %29.42 in5.0 miWest (270°)6.9 mphLight Drizzle
10:20 AM42.8 °F37.4 °F81 %29.44 in5.0 miWest (260°)13.8 mphLight Drizzle
10:50 AM42.8 °F37.4 °F81 %29.44 in6.2 miWSW (250°)10.4 mphLight Drizzle
11:20 AM42.8 °F39.2 °F87 %29.42 in6.2 miSW (230°)6.9 mphScattered Clouds
11:50 AM44.6 °F39.2 °F81 %29.42 in6.2 miWSW (240°)5.8 mphScattered Clouds
12:20 PM46.4 °F41.0 °F81 %29.39 in6.2 miWSW (240°)8.1 mphPartly Cloudy
12:50 PM50.0 °F39.2 °F66 %29.39 in6.2 miSW (230°)8.1 mphPartly Cloudy
1:20 PM51.8 °F37.4 °F58 %29.39 in6.2 miWSW (240°)13.8 mphPartly Cloudy
1:50 PM53.6 °F41.0 °F62 %29.39 in6.2 miWSW (240°)11.5 mphPartly Cloudy
2:20 PM51.8 °F39.2 °F62 %29.39 in6.2 miSW (220°)8.1 mphPartly Cloudy
2:50 PM51.8 °F41.0 °F67 %29.39 in6.2 miSW (220°)4.6 mphScattered Clouds
3:20 PM50.0 °F39.2 °F66 %29.39 in6.2 miSSW (210°)9.2 mphScattered Clouds
3:50 PM50.0 °F41.0 °F71 %29.39 in6.2 miSW (230°)5.8 mphScattered Clouds
4:20 PM50.0 °F39.2 °F66 %29.39 in6.2 miSSW (210°)6.9 mphScattered Clouds
4:50 PM50.0 °F39.2 °F66 %29.39 in6.2 miSSW (200°)9.2 mphScattered Clouds
5:20 PM48.2 °F39.2 °F71 %29.39 in6.2 miSSW (210°)6.9 mphScattered Clouds
5:50 PM48.2 °F41.0 °F76 %29.39 in6.2 miSW (220°)11.5 mphScattered Clouds
6:20 PM48.2 °F41.0 °F76 %29.39 in6.2 miSW (220°)12.7 mphScattered Clouds
6:50 PM46.4 °F39.2 °F76 %29.42 in6.2 miSW (220°)9.2 mphScattered Clouds
7:20 PM46.4 °F39.2 °F76 %29.42 in6.2 miWSW (240°)6.9 mphScattered Clouds
7:50 PM46.4 °F41.0 °F81 %29.42 in6.2 miWSW (240°)9.2 mphScattered Clouds
8:20 PM46.4 °F39.2 °F76 %29.42 in6.2 miSW (230°)6.9 mphScattered Clouds
8:50 PM46.4 °F39.2 °F76 %29.42 in6.2 miWSW (240°)5.8 mphScattered Clouds
9:20 PM46.4 °F39.2 °F76 %29.42 in6.2 miWest (270°)8.1 mphScattered Clouds
9:50 PM44.6 °F39.2 °F81 %29.44 in6.2 miWest (260°)5.8 mphScattered Clouds
10:20 PM44.6 °F37.4 °F76 %29.44 in6.2 miWest (280°)6.9 mphPartly Cloudy
10:50 PM42.8 °F37.4 °F81 %29.44 in6.2 miWest (260°)6.9 mphPartly Cloudy
11:20 PM42.8 °F39.2 °F87 %29.44 in6.2 miWNW (300°)8.1 mphPartly Cloudy
11:50 PM42.8 °F37.4 °F81 %29.44 in6.2 miWest (270°)6.9 mphPartly Cloudy
Hourly data recorded from LIBD, located miles away from Bari, Italy







STORIES FROM OUR PARTNERS